Current Weather Conditions: station 62131

sailwx.info

Wind from 200 at 17 knots

Air temperature 12.0° C
Dewpoint 9.3° C

Last reported at 2019-Oct-18 08:00 UTC.
Time now 2019-Oct-18 09:30 UTC

Location: N 53°54' E 001°12'.
View on Google Maps.

See reports from other nearby stations

  
Tides and Currents Weather Stations Pressure Air Temp Water Temp Dewpoint Dewpoint Depression Visibility Wind Speed Wind Dir Waves Ship Positions
date/time (UTC)wind fromknots sea level pressurealtimeterstation pressurevisibilityair tempwater tempwave heightnotes
2019-Oct-18 08:00 200 17 12.0
2019-Oct-18 07:00 190 18 12.3
2019-Oct-18 06:00 190 12 12.2
2019-Oct-18 05:00 170 19 12.9
2019-Oct-18 04:00 160 18 12.8
2019-Oct-18 03:00 180 19 12.8
2019-Oct-18 02:00 180 18 12.3
2019-Oct-18 01:00 180 20 12.5
2019-Oct-18 00:00 180 17 12.7
2019-Oct-17 23:00 190 17 12.8
2019-Oct-17 22:00 180 20 12.8
2019-Oct-17 21:00 180 19 12.9
2019-Oct-17 20:00 190 18 12.9
2019-Oct-17 19:00 190 20 13.3
2019-Oct-17 18:00 140 13 13.3
2019-Oct-17 17:00 140 9 13.0
2019-Oct-17 16:00 150 12 12.7
2019-Oct-17 15:00 170 14 12.3
2019-Oct-17 14:00 180 13 12.2
2019-Oct-17 13:00 180 13 12.2
2019-Oct-17 12:00 180 15 12.1
2019-Oct-17 11:00 190 15 11.9
2019-Oct-17 10:00 190 14 11.8
2019-Oct-17 09:00 210 14 11.5
2019-Oct-17 08:00 210 13 11.7
2019-Oct-17 07:00 210 14 11.6
2019-Oct-17 06:00 220 13 11.8
2019-Oct-17 05:00 210 13 11.6
2019-Oct-17 04:00 230 13 11.6
2019-Oct-17 03:00 240 8 11.7
2019-Oct-17 02:00 260 9 11.6
2019-Oct-17 01:00 270 13 11.6
2019-Oct-17 00:00 270 14 11.5
2019-Oct-16 23:00 280 13 11.7
2019-Oct-16 22:00 270 15 11.9
2019-Oct-16 21:00 270 15 12.3
2019-Oct-16 20:00 270 17 12.6
2019-Oct-16 19:00 270 15 13.0
2019-Oct-16 18:00 270 15 13.1
2019-Oct-16 17:00 260 13 13.1
2019-Oct-16 16:00 270 18 12.2
2019-Oct-16 15:00 230 13 13.2
2019-Oct-16 14:00 200 14 13.4
2019-Oct-16 13:00 170 20 13.5
2019-Oct-16 12:00 160 24 13.3
2019-Oct-16 11:00 150 20 13.2
2019-Oct-16 10:00 160 20 14.0
2019-Oct-16 09:00 150 20 13.8